Погода в Развильном

Россия / Ростовская область     46°14′19″N   41°17′22″E
темп.,
°C
ветер,
м/с
пор.,
м/с
влажн.,
%
обл.,
%
осадки,
мм/ч
давл.,
гПа
погр.,
м
4 марта, чт
чт400:000з498418 0.0 1025260
03:00−1з378810 0.0 1025185
06:00−1зюз35870 0.0 1026133
09:00+2зюз58650 0.0 1025554
12:00+6зюз68480 0.0 10231013
15:00+7зюз710540 0.0 10221279
18:00+4зюз410690 0.0 1020236
21:00+2юз512840 0.0 1020325
5 марта, пт
пт500:00+2зюз716833 0.0 1019658
03:00+2зюз7178033 0.0 1019636
06:00+1юз617830 0.0 1018642
09:00+4зюз915650 0.0 1018817
12:00+8зюз8125053 0.0 1017990
15:00+10зюз7114863 0.0 10161175
18:00+8юз496284 0.0 1016236
21:00+5зюз5166658 0.0 1016575
6 марта, сб
сб600:00+3ююз512693 0.0 1016339
03:00+3ююз4156946 0.0 1015436
06:00+3юз6196997 0.0 1014667
09:00+7зюз9176398 0.0 1014858
12:00+10зюз101564100 0.0 10141243
15:00+8з81278100 0.1 10131057
18:00+3сз71195100 0.4 1015624
21:00+2сз6979100 1.3 1018940
7 марта, вс
вс700:00+1сз71068100 0.1 1021988
03:00−2сз5106083 0.1 1023789
06:00−3зсз58580 0.0 1025924
09:00−1зсз67480 0.0 10271250
12:00+2з56400 0.0 10261429
15:00+2з67400 0.0 10241432
18:000з49540 0.0 1023307
21:00−2зюз511600 0.0 1023577
8 марта, пн
пн800:00−2зюз511626 0.0 1022588
03:00−1зюз614557 0.0 1021684
06:00−1зюз714630 0.0 1020652
09:00+2зюз913550 0.0 10191028
12:00+5зюз912510 0.0 10181370
15:00+5з8125632 0.0 10171563
18:00+3зюз4106786 0.0 1017292
21:00+1юз5138160 0.0 1018400